Powrót do katalogu

INTELSAT 602

AktywnyŁącznośćGEO
NORAD 20315·PAYLOAD· XX

Wystrzelony Oct 27, 1989 z Guiana Space Centre

Loading…

TLE

ŚwieżeSource: Space-Track

Epoka: Sep 13, 2026, 21:07 UTC

1 20315U 89087A   26256.88024860  .00000043  00000-0  00000-0 0  9997
2 20315  14.3698   6.8868 0007033 223.2406 135.2068  0.99004686132195

Śledź INTELSAT 602 w czasie rzeczywistym z AllMySat

Download on the App Store